Tour de Corse 2016

Dernière mise à jour le 21/03/2017 à 09:14:05

SS10 Porto-Vecchio - Palombaggia (Power Stage) (10.42km) - 2016/10/02

Stage

Pos.#PiloteTempsDiff préc.Diff 1er
17GBR Kris MEEKE6:09.0
29NOR Andreas MIKKELSEN6:09.5+0.5+0.5
31FRA Sebastien OGIER6:10.6+1.1+1.6
42FIN Jari-Matti LATVALA6:10.7+0.1+1.7
53BEL Thierry NEUVILLE6:13.2+2.5+4.2
620NZL Hayden PADDON6:13.5+0.3+4.5
74ESP Dani SORDO6:15.2+1.7+6.2
85NOR Mads OSTBERG6:16.3+1.1+7.3
98IRL Craig BREEN6:16.8+0.5+7.8
106FRA Eric CAMILLI6:21.2+4.4+12.2
1112EST Ott TANAK6:26.1+4.9+17.1
1232CZE Jan KOPECKY6:26.7+0.6+17.7
1384FIN Teemu SUNINEN6:27.8+1.1+18.8
1437ITA Lorenzo BERTELLI6:28.1+0.3+19.1
1531GBR Elfyn EVANS6:30.0+1.9+21.0
1685FRA Sylvain MICHEL6:33.2+3.2+24.2
1786ITA Fabio ANDOLFI6:34.0+0.8+25.0
1836FRA Yoann BONATO6:35.7+1.7+26.7
1934FRA Pierre-Louis LOUBET6:38.5+2.8+29.5
2040FRA Julien MAURIN6:38.5+0.0+29.5
2141POL Maciek SZCZEPANIAK6:48.0+9.5+39.0
2293FRA Thierry MATTEI6:58.2+10.2+49.2
2364FRA Terry FOLB6:58.3+0.1+49.3
2472FRA Yohan ROSSEL6:59.6+1.3+50.6
2563SVK Martin KOCI7:03.1+3.5+54.1
2665FRA Vincent DUBERT7:04.0+0.9+55.0
2773FRA Laurent PELLIER7:04.7+0.7+55.7
2888IRL Eamonn BOLAND7:05.1+0.4+56.1
2933FRA Quentin GILBERT7:08.5+3.4+59.5
3070CHE Michael BURRI7:09.2+0.7+1:00.2
3169FRA Igor GIUSTI7:27.9+18.7+1:18.9
32106FRA Anthony MARIANI7:29.9+2.0+1:20.9
33101FRA Nicolas LECA7:34.3+4.4+1:25.3
3468ITA Enrico BRAZZOLI7:35.9+1.6+1:26.9
35102FRA Eric FILIPPI7:36.2+0.3+1:27.2
3661ITA Simone TEMPESTINI7:38.1+1.9+1:29.1
3762NOR Ole Christian VEIBY7:40.7+2.6+1:31.7
38103FRA Yannick WENDLING7:41.3+0.6+1:32.3
39113FRA Alain MARI7:42.8+1.5+1:33.8
4092FRA Jean-Marc PLISSON7:48.9+6.1+1:39.9
41117FRA Laura SALINI7:57.8+8.9+1:48.8
42116FRA Fabien FOISSAC8:02.2+4.4+1:53.2
43114FRA Vincent RAYNAUD8:07.3+5.1+1:58.3
44115FRA Pascal GENTY8:12.5+5.2+2:03.5
45104CAN Ian CRERAR8:14.3+1.8+2:05.3
46120FRA Eddy BERTIN8:20.6+6.3+2:11.6
47110FRA Jean-Michel DE MEYER8:20.9+0.3+2:11.9
48100FRA Cédric CARDI8:29.0+8.1+2:20.0
49107FRA Claude BENSIMON8:31.8+2.8+2:22.8
5097FRA Jean-Marc KEMP8:39.7+7.9+2:30.7
51118FRA Patrick MARCHAND8:55.2+15.5+2:46.2
52119FRA Alain DI PAOLO8:55.2+0.0+2:46.2

Overall

Pos.#PiloteTempsDiff préc.Diff 1er
11FRA Sebastien OGIER4:07:17.0
23BEL Thierry NEUVILLE4:08:03.4+46.4+46.4
39NOR Andreas MIKKELSEN4:08:27.0+23.6+1:10.0
42FIN Jari-Matti LATVALA4:08:52.6+25.6+1:35.6
58IRL Craig BREEN4:09:35.6+43.0+2:18.6
620NZL Hayden PADDON4:09:53.1+17.5+2:36.1
74ESP Dani SORDO4:10:23.9+30.8+3:06.9
86FRA Eric CAMILLI4:12:10.9+1:47.0+4:53.9
95NOR Mads OSTBERG4:12:54.7+43.8+5:37.7
1012EST Ott TANAK4:13:43.6+48.9+6:26.6
1131GBR Elfyn EVANS4:14:22.0+38.4+7:05.0
1232CZE Jan KOPECKY4:14:55.3+33.3+7:38.3
1336FRA Yoann BONATO4:18:01.6+3:06.3+10:44.6
1440FRA Julien MAURIN4:18:32.1+30.5+11:15.1
1584FIN Teemu SUNINEN4:22:46.9+4:14.8+15:29.9
167GBR Kris MEEKE4:29:52.2+7:05.3+22:35.2
1737ITA Lorenzo BERTELLI4:31:26.4+1:34.2+24:09.4
1886ITA Fabio ANDOLFI4:37:20.1+5:53.7+30:03.1
1973FRA Laurent PELLIER4:38:19.3+59.2+31:02.3
2072FRA Yohan ROSSEL4:38:52.8+33.5+31:35.8
2163SVK Martin KOCI4:39:35.2+42.4+32:18.2
2285FRA Sylvain MICHEL4:41:39.2+2:04.0+34:22.2
2361ITA Simone TEMPESTINI4:44:26.8+2:47.6+37:09.8
2470CHE Michael BURRI4:46:22.7+1:55.9+39:05.7
2534FRA Pierre-Louis LOUBET4:47:45.3+1:22.6+40:28.3
2688IRL Eamonn BOLAND4:49:50.3+2:05.0+42:33.3
2764FRA Terry FOLB4:50:11.9+21.6+42:54.9
2833FRA Quentin GILBERT4:52:20.5+2:08.6+45:03.5
2993FRA Thierry MATTEI4:56:34.4+4:13.9+49:17.4
3065FRA Vincent DUBERT4:57:59.4+1:25.0+50:42.4
3162NOR Ole Christian VEIBY5:01:58.7+3:59.3+54:41.7
3268ITA Enrico BRAZZOLI5:04:16.1+2:17.4+56:59.1
3341POL Maciek SZCZEPANIAK5:05:05.2+49.1+57:48.2
34100FRA Cédric CARDI5:05:58.8+53.6+58:41.8
35101FRA Nicolas LECA5:07:55.5+1:56.7+1:00:38.5
36102FRA Eric FILIPPI5:09:44.7+1:49.2+1:02:27.7
3792FRA Jean-Marc PLISSON5:13:21.7+3:37.0+1:06:04.7
38103FRA Yannick WENDLING5:15:21.9+2:00.2+1:08:04.9
39117FRA Laura SALINI5:15:40.5+18.6+1:08:23.5
40106FRA Anthony MARIANI5:15:43.9+3.4+1:08:26.9
41110FRA Jean-Michel DE MEYER5:23:47.4+8:03.5+1:16:30.4
42113FRA Alain MARI5:28:17.2+4:29.8+1:21:00.2
43116FRA Fabien FOISSAC5:29:06.6+49.4+1:21:49.6
44107FRA Claude BENSIMON5:32:25.4+3:18.8+1:25:08.4
45120FRA Eddy BERTIN5:35:57.4+3:32.0+1:28:40.4
4697FRA Jean-Marc KEMP5:36:53.8+56.4+1:29:36.8
47104CAN Ian CRERAR5:37:51.4+57.6+1:30:34.4
48119FRA Alain DI PAOLO5:40:34.7+2:43.3+1:33:17.7
49118FRA Patrick MARCHAND5:46:39.1+6:04.4+1:39:22.1
5069FRA Igor GIUSTI5:51:22.0+4:42.9+1:44:05.0
51115FRA Pascal GENTY5:51:53.5+31.5+1:44:36.5
52114FRA Vincent RAYNAUD5:52:19.2+25.7+1:45:02.2